24-01-2022, 00:00:05,    144,    0.0,    2.9,   0.00,   0.00, 1027.4,   72.0, -999.0
24-01-2022, 00:00:15,    144,    0.0,    2.8,   0.00,   0.00, 1027.5,   72.0, -999.0
24-01-2022, 00:00:25,    144,    0.0,    2.7,   0.00,   0.00, 1027.4,   71.8, -999.0
24-01-2022, 00:00:34,    144,    0.0,    2.6,   0.00,   0.00, 1027.4,   71.7, -999.0
24-01-2022, 00:00:45,    144,    0.0,    2.6,   0.00,   0.00, 1027.5,   71.7, -999.0
24-01-2022, 00:00:55,    144,    0.0,    2.5,   0.00,   0.00, 1027.4,   71.8, -999.0
24-01-2022, 00:01:04,    121,    0.4,    2.5,   0.00,   0.00, 1027.5,   72.3, -999.0
24-01-2022, 00:01:15,    126,    1.9,    2.7,   0.00,   0.00, 1027.6,   72.4, -999.0
24-01-2022, 00:01:24,    126,    1.4,    2.7,   0.00,   0.00, 1027.6,   72.5, -999.0
24-01-2022, 00:01:34,    126,    0.2,    2.7,   0.00,   0.00, 1027.5,   72.6, -999.0
24-01-2022, 00:01:44,    136,    0.2,    2.6,   0.00,   0.00, 1027.6,   72.9, -999.0
24-01-2022, 00:01:54,    174,    0.3,    2.7,   0.00,   0.00, 1027.6,   72.9, -999.0
24-01-2022, 00:02:04,    174,    0.4,    2.8,   0.00,   0.00, 1027.6,   72.7, -999.0
24-01-2022, 00:02:14,    173,    0.0,    2.6,   0.00,   0.00, 1027.5,   72.3, -999.0
24-01-2022, 00:02:24,    173,    0.0,    2.6,   0.00,   0.00, 1027.5,   72.3, -999.0
24-01-2022, 00:02:34,    173,    0.0,    2.7,   0.00,   0.00, 1027.4,   72.2, -999.0
24-01-2022, 00:02:44,    173,    0.2,    2.7,   0.00,   0.00, 1027.5,   72.6, -999.0
24-01-2022, 00:02:54,    173,    0.3,    2.7,   0.00,   0.00, 1027.5,   72.4, -999.0
24-01-2022, 00:03:04,    173,    0.0,    2.7,   0.00,   0.00, 1027.4,   72.3, -999.0
24-01-2022, 00:03:14,    173,    0.0,    2.5,   0.00,   0.00, 1027.4,   72.4, -999.0
24-01-2022, 00:03:24,    173,    0.0,    2.7,   0.00,   0.00, 1027.4,   72.3, -999.0
24-01-2022, 00:03:34,    173,    0.0,    2.6,   0.00,   0.00, 1027.4,   72.3, -999.0
24-01-2022, 00:03:44,    173,    0.0,    2.6,   0.00,   0.00, 1027.4,   72.2, -999.0
24-01-2022, 00:03:54,    173,    0.0,    2.5,   0.00,   0.00, 1027.4,   72.2, -999.0
24-01-2022, 00:04:04,    173,    0.3,    2.6,   0.00,   0.00, 1027.5,   72.3, -999.0
24-01-2022, 00:04:13,    173,    0.1,    2.5,   0.00,   0.00, 1027.5,   72.3, -999.0
24-01-2022, 00:04:24,    173,    1.0,    2.7,   0.00,   0.00, 1027.6,   72.8, -999.0
24-01-2022, 00:04:33,    173,    0.7,    2.7,   0.00,   0.00, 1027.6,   72.7, -999.0
24-01-2022, 00:04:43,    173,    1.1,    2.6,   0.00,   0.00, 1027.6,   72.7, -999.0
24-01-2022, 00:04:54,    148,    1.9,    2.6,   0.00,   0.00, 1027.6,   72.7, -999.0
24-01-2022, 00:05:03,    148,    1.0,    2.5,   0.00,   0.00, 1027.6,   72.7, -999.0
24-01-2022, 00:05:13,    148,    0.8,    2.5,   0.00,   0.00, 1027.6,   72.7, -999.0
24-01-2022, 00:05:23,    171,    1.1,    2.5,   0.00,   0.00, 1027.6,   72.8, -999.0
24-01-2022, 00:05:33,    156,    1.1,    2.5,   0.00,   0.00, 1027.6,   72.9, -999.0
24-01-2022, 00:05:43,    155,    0.2,    2.5,   0.00,   0.00, 1027.5,   72.8, -999.0
24-01-2022, 00:05:53,    155,    0.2,    2.5,   0.00,   0.00, 1027.5,   73.0, -999.0
24-01-2022, 00:06:03,    155,    0.0,    2.5,   0.00,   0.00, 1027.5,   73.1, -999.0
24-01-2022, 00:06:13,    155,    0.0,    2.5,   0.00,   0.00, 1027.4,   72.9, -999.0
24-01-2022, 00:06:23,    155,    0.0,    2.5,   0.00,   0.00, 1027.4,   73.0, -999.0
24-01-2022, 00:06:33,    155,    0.0,    2.5,   0.00,   0.00, 1027.4,   73.0, -999.0
24-01-2022, 00:06:43,    155,    0.0,    2.5,   0.00,   0.00, 1027.4,   73.1, -999.0
24-01-2022, 00:06:53,    154,    0.0,    2.5,   0.00,   0.00, 1027.4,   73.0, -999.0
24-01-2022, 00:07:03,    155,    0.0,    2.5,   0.00,   0.00, 1027.4,   72.9, -999.0
24-01-2022, 00:07:13,    154,    0.0,    2.5,   0.00,   0.00, 1027.5,   72.8, -999.0
24-01-2022, 00:07:23,    155,    0.0,    2.4,   0.00,   0.00, 1027.4,   72.6, -999.0
24-01-2022, 00:07:33,    155,    0.0,    2.4,   0.00,   0.00, 1027.4,   72.8, -999.0
24-01-2022, 00:07:43,    155,    0.0,    2.5,   0.00,   0.00, 1027.4,   72.6, -999.0
24-01-2022, 00:07:52,    154,    0.0,    2.5,   0.00,   0.00, 1027.4,   72.8, -999.0
24-01-2022, 00:08:03,    155,    0.0,    2.4,   0.00,   0.00, 1027.4,   72.9, -999.0
24-01-2022, 00:08:12,    155,    0.0,    2.4,   0.00,   0.00, 1027.4,   72.9, -999.0
24-01-2022, 00:08:22,    155,    0.0,    2.5,   0.00,   0.00, 1027.4,   73.1, -999.0
24-01-2022, 00:08:33,    155,    0.0,    2.4,   0.00,   0.00, 1027.4,   73.0, -999.0
24-01-2022, 00:08:42,    154,    0.0,    2.5,   0.00,   0.00, 1027.4,   73.0, -999.0
24-01-2022, 00:08:52,    155,    0.0,    2.4,   0.00,   0.00, 1027.4,   73.1, -999.0
24-01-2022, 00:09:02,    155,    0.0,    2.4,   0.00,   0.00, 1027.4,   73.1, -999.0
24-01-2022, 00:09:12,    155,    0.0,    2.5,   0.00,   0.00, 1027.4,   73.0, -999.0
24-01-2022, 00:09:22,    155,    0.0,    2.4,   0.00,   0.00, 1027.4,   73.1, -999.0
24-01-2022, 00:09:32,    155,    0.0,    2.4,   0.00,   0.00, 1027.4,   73.1, -999.0
24-01-2022, 00:09:42,    155,    0.0,    2.4,   0.00,   0.00, 1027.3,   73.1, -999.0
24-01-2022, 00:09:52,    152,    0.0,    2.4,   0.00,   0.00, 1027.4,   73.2, -999.0
24-01-2022, 00:10:02,    155,    0.1,    2.5,   0.00,   0.00, 1027.4,   73.4, -999.0
24-01-2022, 00:10:12,    155,    0.0,    2.6,   0.00,   0.00, 1027.3,   73.4, -999.0
24-01-2022, 00:10:22,    155,    0.0,    2.7,   0.00,   0.00, 1027.3,   73.4, -999.0
24-01-2022, 00:10:32,    155,    0.0,    2.7,   0.00,   0.00, 1027.3,   73.6, -999.0
24-01-2022, 00:10:42,    155,    0.0,    2.7,   0.00,   0.00, 1027.4,   73.6, -999.0
24-01-2022, 00:10:52,    154,    0.0,    2.7,   0.00,   0.00, 1027.3,   73.4, -999.0
24-01-2022, 00:11:02,    154,    0.0,    2.7,   0.00,   0.00, 1027.3,   73.1, -999.0
24-01-2022, 00:11:12,    154,    0.0,    2.7,   0.00,   0.00, 1027.3,   73.0, -999.0
24-01-2022, 00:11:22,    155,    0.0,    2.7,   0.00,   0.00, 1027.3,   73.1, -999.0
24-01-2022, 00:11:31,    154,    0.0,    2.7,   0.00,   0.00, 1027.3,   73.0, -999.0
24-01-2022, 00:11:42,    155,    0.0,    2.6,   0.00,   0.00, 1027.3,   72.8, -999.0
24-01-2022, 00:11:51,    154,    0.0,    2.7,   0.00,   0.00, 1027.3,   72.7, -999.0
24-01-2022, 00:12:01,    155,    0.0,    2.6,   0.00,   0.00, 1027.3,   72.7, -999.0
24-01-2022, 00:12:11,    155,    0.0,    2.6,   0.00,   0.00, 1027.3,   72.6, -999.0
24-01-2022, 00:12:21,    155,    0.0,    2.6,   0.00,   0.00, 1027.3,   72.8, -999.0
24-01-2022, 00:12:31,    155,    0.0,    2.6,   0.00,   0.00, 1027.3,   72.7, -999.0
24-01-2022, 00:12:41,    154,    0.0,    2.5,   0.00,   0.00, 1027.3,   72.6, -999.0
24-01-2022, 00:12:51,    154,    0.0,    2.6,   0.00,   0.00, 1027.3,   72.7, -999.0
24-01-2022, 00:13:01,    155,    0.0,    2.5,   0.00,   0.00, 1027.3,   72.8, -999.0
24-01-2022, 00:13:11,    155,    0.0,    2.6,   0.00,   0.00, 1027.3,   72.6, -999.0
24-01-2022, 00:13:21,    154,    0.0,    2.5,   0.00,   0.00, 1027.2,   72.8, -999.0
24-01-2022, 00:13:31,    154,    0.0,    2.6,   0.00,   0.00, 1027.2,   72.9, -999.0
24-01-2022, 00:13:41,    155,    0.0,    2.4,   0.00,   0.00, 1027.2,   72.6, -999.0
24-01-2022, 00:13:51,    154,    0.0,    2.5,   0.00,   0.00, 1027.2,   72.7, -999.0
24-01-2022, 00:14:01,    154,    0.0,    2.5,   0.00,   0.00, 1027.2,   72.7, -999.0
24-01-2022, 00:14:11,    154,    0.0,    2.5,   0.00,   0.00, 1027.2,   72.6, -999.0
24-01-2022, 00:14:21,    155,    0.0,    2.5,   0.00,   0.00, 1027.2,   72.7, -999.0
24-01-2022, 00:14:31,    155,    0.0,    2.3,   0.00,   0.00, 1027.2,   72.6, -999.0
24-01-2022, 00:14:40,    155,    0.0,    2.4,   0.00,   0.00, 1027.2,   72.6, -999.0
24-01-2022, 00:14:51,    154,    0.0,    2.4,   0.00,   0.00, 1027.2,   72.6, -999.0
24-01-2022, 00:15:01,    155,    0.0,    2.4,   0.00,   0.00, 1027.2,   72.6, -999.0
24-01-2022, 00:15:10,    154,    0.0,    2.4,   0.00,   0.00, 1027.2,   72.6, -999.0
24-01-2022, 00:15:21,    155,    0.0,    2.4,   0.00,   0.00, 1027.2,   72.7, -999.0
24-01-2022, 00:15:31,    155,    0.0,    2.3,   0.00,   0.00, 1027.2,   72.7, -999.0
24-01-2022, 00:15:40,    155,    0.0,    2.4,   0.00,   0.00, 1027.2,   72.9, -999.0
24-01-2022, 00:15:50,    157,    0.0,    2.4,   0.00,   0.00, 1027.2,   72.9, -999.0
24-01-2022, 00:16:00,    155,    0.0,    2.4,   0.00,   0.00, 1027.2,   72.9, -999.0
24-01-2022, 00:16:10,    154,    0.0,    2.3,   0.00,   0.00, 1027.2,   72.9, -999.0
24-01-2022, 00:16:20,    155,    0.0,    2.2,   0.00,   0.00, 1027.2,   72.8, -999.0
24-01-2022, 00:16:30,    155,    0.0,    2.3,   0.00,   0.00, 1027.2,   72.9, -999.0
24-01-2022, 00:16:40,    155,    0.0,    2.3,   0.00,   0.00, 1027.2,   72.9, -999.0
24-01-2022, 00:16:50,    154,    0.0,    2.3,   0.00,   0.00, 1027.2,   73.0, -999.0
24-01-2022, 00:17:00,    155,    0.0,    2.2,   0.00,   0.00, 1027.2,   73.0, -999.0
24-01-2022, 00:17:10,    154,    0.0,    2.3,   0.00,   0.00, 1027.2,   73.1, -999.0
24-01-2022, 00:17:20,    155,    0.0,    2.3,   0.00,   0.00, 1027.2,   73.1, -999.0
24-01-2022, 00:17:30,    154,    0.0,    2.3,   0.00,   0.00, 1027.2,   73.1, -999.0
24-01-2022, 00:17:40,    155,    0.0,    2.3,   0.00,   0.00, 1027.2,   73.1, -999.0
24-01-2022, 00:17:50,    154,    0.0,    2.4,   0.00,   0.00, 1027.2,   73.2, -999.0
24-01-2022, 00:18:00,    154,    0.0,    2.2,   0.00,   0.00, 1027.2,   73.3, -999.0
24-01-2022, 00:18:10,    155,    0.0,    2.3,   0.00,   0.00, 1027.2,   73.3, -999.0
24-01-2022, 00:18:19,    155,    0.0,    2.3,   0.00,   0.00, 1027.2,   73.4, -999.0
24-01-2022, 00:18:30,    154,    0.0,    2.3,   0.00,   0.00, 1027.2,   73.3, -999.0
24-01-2022, 00:18:40,    155,    0.0,    2.3,   0.00,   0.00, 1027.2,   73.5, -999.0
24-01-2022, 00:18:49,    154,    0.0,    2.3,   0.00,   0.00, 1027.2,   73.5, -999.0
24-01-2022, 00:18:59,    155,    0.0,    2.3,   0.00,   0.00, 1027.2,   73.5, -999.0
24-01-2022, 00:19:10,    155,    0.0,    2.3,   0.00,   0.00, 1027.2,   73.6, -999.0
24-01-2022, 00:19:19,    155,    0.0,    2.3,   0.00,   0.00, 1027.2,   73.6, -999.0
24-01-2022, 00:19:29,    154,    0.0,    2.3,   0.00,   0.00, 1027.2,   73.5, -999.0
24-01-2022, 00:19:39,    155,    0.0,    2.3,   0.00,   0.00, 1027.2,   73.5, -999.0
24-01-2022, 00:19:49,    154,    0.0,    2.4,   0.00,   0.00, 1027.2,   73.5, -999.0
24-01-2022, 00:19:59,    155,    0.0,    2.4,   0.00,   0.00, 1027.2,   73.7, -999.0
24-01-2022, 00:20:09,    155,    0.0,    2.4,   0.00,   0.00, 1027.2,   73.7, -999.0
24-01-2022, 00:20:19,    154,    0.0,    2.4,   0.00,   0.00, 1027.2,   73.6, -999.0
24-01-2022, 00:20:29,    154,    0.0,    2.4,   0.00,   0.00, 1027.2,   73.6, -999.0
24-01-2022, 00:20:39,    155,    0.0,    2.4,   0.00,   0.00, 1027.2,   73.8, -999.0
24-01-2022, 00:20:49,    155,    0.0,    2.3,   0.00,   0.00, 1027.2,   73.5, -999.0
24-01-2022, 00:20:59,    155,    0.0,    2.2,   0.00,   0.00, 1027.2,   73.5, -999.0
24-01-2022, 00:21:09,    155,    0.0,    2.4,   0.00,   0.00, 1027.2,   73.5, -999.0
24-01-2022, 00:21:19,    155,    0.0,    2.3,   0.00,   0.00, 1027.2,   73.5, -999.0
24-01-2022, 00:21:29,    155,    0.0,    2.4,   0.00,   0.00, 1027.2,   73.5, -999.0
24-01-2022, 00:21:39,    155,    0.0,    2.2,   0.00,   0.00, 1027.2,   73.5, -999.0
24-01-2022, 00:21:49,    155,    0.0,    2.3,   0.00,   0.00, 1027.2,   73.5, -999.0
24-01-2022, 00:21:58,    155,    0.0,    2.3,   0.00,   0.00, 1027.2,   73.6, -999.0
24-01-2022, 00:22:09,    155,    0.0,    2.3,   0.00,   0.00, 1027.2,   73.6, -999.0
24-01-2022, 00:22:19,    155,    0.0,    2.4,   0.00,   0.00, 1027.2,   73.5, -999.0
24-01-2022, 00:22:28,    155,    0.0,    2.4,   0.00,   0.00, 1027.2,   73.6, -999.0
24-01-2022, 00:22:38,    155,    0.0,    2.3,   0.00,   0.00, 1027.2,   73.6, -999.0
24-01-2022, 00:22:49,    155,    0.0,    2.4,   0.00,   0.00, 1027.2,   73.6, -999.0
24-01-2022, 00:22:58,    155,    0.0,    2.4,   0.00,   0.00, 1027.2,   73.6, -999.0
24-01-2022, 00:23:08,    155,    0.0,    2.4,   0.00,   0.00, 1027.2,   73.6, -999.0
24-01-2022, 00:23:18,    154,    0.0,    2.3,   0.00,   0.00, 1027.2,   73.7, -999.0
24-01-2022, 00:23:28,    155,    0.0,    2.3,   0.00,   0.00, 1027.2,   73.6, -999.0
24-01-2022, 00:23:38,    179,    0.0,    2.4,   0.00,   0.00, 1027.2,   73.6, -999.0
24-01-2022, 00:23:48,    177,    0.2,    2.4,   0.00,   0.00, 1027.3,   73.7, -999.0
24-01-2022, 00:23:58,    178,    0.0,    2.3,   0.00,   0.00, 1027.2,   73.5, -999.0
24-01-2022, 00:24:08,    177,    0.0,    2.2,   0.00,   0.00, 1027.2,   73.6, -999.0
24-01-2022, 00:24:18,    177,    0.0,    2.2,   0.00,   0.00, 1027.2,   73.7, -999.0
24-01-2022, 00:24:28,    177,    0.0,    2.3,   0.00,   0.00, 1027.2,   73.7, -999.0
24-01-2022, 00:24:38,    178,    0.0,    2.3,   0.00,   0.00, 1027.2,   73.5, -999.0
24-01-2022, 00:24:48,    178,    0.0,    2.3,   0.00,   0.00, 1027.2,   73.7, -999.0
24-01-2022, 00:24:58,    175,    0.0,    2.3,   0.00,   0.00, 1027.2,   73.6, -999.0
24-01-2022, 00:25:08,    199,    0.1,    2.3,   0.00,   0.00, 1027.2,   73.7, -999.0
24-01-2022, 00:25:18,    200,    0.0,    2.4,   0.00,   0.00, 1027.3,   73.8, -999.0
24-01-2022, 00:25:28,    211,    0.0,    2.3,   0.00,   0.00, 1027.2,   73.6, -999.0
24-01-2022, 00:25:37,    211,    0.0,    2.2,   0.00,   0.00, 1027.2,   73.7, -999.0
24-01-2022, 00:25:47,    211,    0.0,    2.2,   0.00,   0.00, 1027.2,   73.6, -999.0
24-01-2022, 00:25:58,    211,    0.0,    2.3,   0.00,   0.00, 1027.2,   73.8, -999.0
24-01-2022, 00:26:07,    211,    0.0,    2.3,   0.00,   0.00, 1027.2,   73.8, -999.0
24-01-2022, 00:26:17,    211,    0.0,    2.3,   0.00,   0.00, 1027.2,   73.8, -999.0
24-01-2022, 00:26:28,    211,    0.0,    2.2,   0.00,   0.00, 1027.2,   73.8, -999.0
24-01-2022, 00:26:37,    211,    0.0,    2.2,   0.00,   0.00, 1027.2,   73.9, -999.0
24-01-2022, 00:26:47,    211,    0.0,    2.3,   0.00,   0.00, 1027.2,   73.9, -999.0
24-01-2022, 00:26:57,    211,    0.0,    2.2,   0.00,   0.00, 1027.2,   73.9, -999.0
24-01-2022, 00:27:07,    212,    0.0,    2.2,   0.00,   0.00, 1027.2,   73.8, -999.0
24-01-2022, 00:27:17,    139,    0.3,    2.3,   0.00,   0.00, 1027.2,   74.0, -999.0
24-01-2022, 00:27:27,    138,    0.4,    2.2,   0.00,   0.00, 1027.3,   74.2, -999.0
24-01-2022, 00:27:37,    138,    0.1,    2.3,   0.00,   0.00, 1027.2,   74.2, -999.0
24-01-2022, 00:27:47,    139,    0.0,    2.3,   0.00,   0.00, 1027.2,   74.1, -999.0
24-01-2022, 00:27:57,    139,    0.0,    2.3,   0.00,   0.00, 1027.2,   74.2, -999.0
24-01-2022, 00:28:07,    138,    0.0,    2.3,   0.00,   0.00, 1027.2,   74.0, -999.0
24-01-2022, 00:28:17,    139,    0.0,    2.3,   0.00,   0.00, 1027.2,   74.1, -999.0
24-01-2022, 00:28:27,    139,    0.0,    2.4,   0.00,   0.00, 1027.2,   73.9, -999.0
24-01-2022, 00:28:37,    139,    0.0,    2.3,   0.00,   0.00, 1027.2,   73.9, -999.0
24-01-2022, 00:28:46,    139,    0.0,    2.3,   0.00,   0.00, 1027.2,   73.9, -999.0
24-01-2022, 00:28:57,    139,    0.0,    2.3,   0.00,   0.00, 1027.2,   73.8, -999.0
24-01-2022, 00:29:07,    139,    0.0,    2.3,   0.00,   0.00, 1027.2,   74.0, -999.0
24-01-2022, 00:29:16,    139,    0.0,    2.3,   0.00,   0.00, 1027.2,   74.0, -999.0
24-01-2022, 00:29:26,    139,    0.0,    2.3,   0.00,   0.00, 1027.2,   74.0, -999.0
24-01-2022, 00:29:37,    139,    0.0,    2.3,   0.00,   0.00, 1027.2,   74.0, -999.0
24-01-2022, 00:29:46,    139,    0.0,    2.4,   0.00,   0.00, 1027.2,   74.1, -999.0
24-01-2022, 00:29:56,    139,    0.0,    2.4,   0.00,   0.00, 1027.2,   74.0, -999.0
24-01-2022, 00:30:06,    139,    0.0,    2.4,   0.00,   0.00, 1027.2,   74.1, -999.0
24-01-2022, 00:30:16,    139,    0.0,    2.4,   0.00,   0.00, 1027.2,   74.0, -999.0
24-01-2022, 00:30:26,    139,    0.0,    2.3,   0.00,   0.00, 1027.2,   74.0, -999.0
24-01-2022, 00:30:36,    139,    0.0,    2.3,   0.00,   0.00, 1027.2,   73.9, -999.0
24-01-2022, 00:30:46,    139,    0.0,    2.3,   0.00,   0.00, 1027.2,   74.0, -999.0
24-01-2022, 00:30:56,    139,    0.0,    2.3,   0.00,   0.00, 1027.2,   73.9, -999.0
24-01-2022, 00:31:06,    138,    0.0,    2.4,   0.00,   0.00, 1027.2,   74.0, -999.0
24-01-2022, 00:31:16,    139,    0.0,    2.4,   0.00,   0.00, 1027.2,   74.0, -999.0
24-01-2022, 00:31:26,    138,    0.0,    2.4,   0.00,   0.00, 1027.2,   74.2, -999.0
24-01-2022, 00:31:36,    139,    0.3,    2.4,   0.00,   0.00, 1027.3,   74.3, -999.0
24-01-2022, 00:31:46,    139,    0.1,    2.5,   0.00,   0.00, 1027.3,   74.1, -999.0
24-01-2022, 00:31:56,    139,    0.0,    2.4,   0.00,   0.00, 1027.2,   73.8, -999.0
24-01-2022, 00:32:06,    139,    0.0,    2.4,   0.00,   0.00, 1027.2,   73.9, -999.0
24-01-2022, 00:32:16,    139,    0.0,    2.3,   0.00,   0.00, 1027.2,   73.8, -999.0
24-01-2022, 00:32:26,    139,    0.0,    2.3,   0.00,   0.00, 1027.2,   73.9, -999.0
24-01-2022, 00:32:36,    138,    0.0,    2.3,   0.00,   0.00, 1027.2,   73.9, -999.0
24-01-2022, 00:32:46,    138,    0.0,    2.3,   0.00,   0.00, 1027.2,   73.9, -999.0
24-01-2022, 00:32:56,    139,    0.0,    2.3,   0.00,   0.00, 1027.2,   74.0, -999.0
24-01-2022, 00:33:05,    138,    0.0,    2.3,   0.00,   0.00, 1027.2,   73.9, -999.0
24-01-2022, 00:33:16,    138,    0.0,    2.3,   0.00,   0.00, 1027.2,   74.0, -999.0
24-01-2022, 00:33:25,    138,    0.0,    2.3,   0.00,   0.00, 1027.2,   74.1, -999.0
24-01-2022, 00:33:35,    139,    0.0,    2.4,   0.00,   0.00, 1027.2,   74.0, -999.0
24-01-2022, 00:33:45,    139,    0.0,    2.3,   0.00,   0.00, 1027.2,   74.2, -999.0
24-01-2022, 00:33:55,    138,    0.0,    2.2,   0.00,   0.00, 1027.2,   74.0, -999.0
24-01-2022, 00:34:05,    139,    0.0,    2.4,   0.00,   0.00, 1027.2,   74.1, -999.0
24-01-2022, 00:34:15,    138,    0.0,    2.4,   0.00,   0.00, 1027.2,   73.9, -999.0
24-01-2022, 00:34:25,    138,    0.0,    2.4,   0.00,   0.00, 1027.1,   74.0, -999.0
24-01-2022, 00:34:35,    138,    0.0,    2.4,   0.00,   0.00, 1027.1,   74.0, -999.0
24-01-2022, 00:34:45,    139,    0.0,    2.3,   0.00,   0.00, 1027.1,   74.2, -999.0
24-01-2022, 00:34:55,    138,    0.0,    2.4,   0.00,   0.00, 1027.2,   74.0, -999.0
24-01-2022, 00:35:05,    139,    0.0,    2.4,   0.00,   0.00, 1027.2,   74.0, -999.0
24-01-2022, 00:35:15,    139,    0.0,    2.4,   0.00,   0.00, 1027.2,   74.0, -999.0
24-01-2022, 00:35:25,    138,    0.0,    2.4,   0.00,   0.00, 1027.2,   74.1, -999.0
24-01-2022, 00:35:35,    139,    0.0,    2.4,   0.00,   0.00, 1027.2,   74.1, -999.0
24-01-2022, 00:35:45,    139,    0.0,    2.4,   0.00,   0.00, 1027.2,   74.0, -999.0
24-01-2022, 00:35:55,    139,    0.0,    2.4,   0.00,   0.00, 1027.2,   74.2, -999.0
24-01-2022, 00:36:05,    138,    0.0,    2.4,   0.00,   0.00, 1027.2,   74.1, -999.0
24-01-2022, 00:36:14,    139,    0.0,    2.4,   0.00,   0.00, 1027.2,   74.0, -999.0
24-01-2022, 00:36:25,    139,    0.0,    2.4,   0.00,   0.00, 1027.1,   74.1, -999.0
24-01-2022, 00:36:35,    141,    0.0,    2.4,   0.00,   0.00, 1027.1,   74.0, -999.0
24-01-2022, 00:36:44,    139,    0.0,    2.3,   0.00,   0.00, 1027.1,   74.1, -999.0
24-01-2022, 00:36:54,    139,    0.0,    2.3,   0.00,   0.00, 1027.1,   74.0, -999.0
24-01-2022, 00:37:05,    138,    0.0,    2.3,   0.00,   0.00, 1027.1,   74.0, -999.0
24-01-2022, 00:37:14,    136,    0.0,    2.3,   0.00,   0.00, 1027.1,   74.0, -999.0
24-01-2022, 00:37:24,    139,    0.0,    2.3,   0.00,   0.00, 1027.1,   74.1, -999.0
24-01-2022, 00:37:34,    139,    0.0,    2.4,   0.00,   0.00, 1027.1,   74.1, -999.0
24-01-2022, 00:37:44,    139,    0.0,    2.4,   0.00,   0.00, 1027.1,   74.4, -999.0
24-01-2022, 00:37:54,    139,    0.0,    2.5,   0.00,   0.00, 1027.1,   74.3, -999.0
24-01-2022, 00:38:04,    139,    0.0,    2.4,   0.00,   0.00, 1027.1,   74.3, -999.0
24-01-2022, 00:38:14,    139,    0.0,    2.5,   0.00,   0.00, 1027.1,   74.3, -999.0
24-01-2022, 00:38:24,    139,    0.0,    2.5,   0.00,   0.00, 1027.1,   74.3, -999.0
24-01-2022, 00:38:34,    139,    0.0,    2.4,   0.00,   0.00, 1027.1,   74.1, -999.0
24-01-2022, 00:38:44,    139,    0.0,    2.5,   0.00,   0.00, 1027.1,   74.0, -999.0
24-01-2022, 00:38:54,    139,    0.0,    2.4,   0.00,   0.00, 1027.1,   74.1, -999.0
24-01-2022, 00:39:04,    139,    0.0,    2.5,   0.00,   0.00, 1027.1,   74.0, -999.0
24-01-2022, 00:39:14,    139,    0.0,    2.5,   0.00,   0.00, 1027.1,   74.0, -999.0
24-01-2022, 00:39:23,    139,    0.0,    2.4,   0.00,   0.00, 1027.1,   73.9, -999.0
24-01-2022, 00:39:34,    139,    0.0,    2.4,   0.00,   0.00, 1027.1,   74.1, -999.0
24-01-2022, 00:39:44,    139,    0.0,    2.5,   0.00,   0.00, 1027.1,   73.9, -999.0
24-01-2022, 00:39:53,    138,    0.0,    2.5,   0.00,   0.00, 1027.1,   74.0, -999.0
24-01-2022, 00:40:04,    139,    0.0,    2.4,   0.00,   0.00, 1027.1,   73.9, -999.0
24-01-2022, 00:40:14,    139,    0.0,    2.5,   0.00,   0.00, 1027.1,   74.0, -999.0
24-01-2022, 00:40:23,    139,    0.0,    2.4,   0.00,   0.00, 1027.1,   73.8, -999.0
24-01-2022, 00:40:33,    138,    0.0,    2.4,   0.00,   0.00, 1027.1,   73.7, -999.0
24-01-2022, 00:40:44,    139,    0.0,    2.4,   0.00,   0.00, 1027.1,   73.7, -999.0
24-01-2022, 00:40:53,    139,    0.0,    2.3,   0.00,   0.00, 1027.1,   73.7, -999.0
24-01-2022, 00:41:03,    139,    0.0,    2.4,   0.00,   0.00, 1027.1,   73.8, -999.0
24-01-2022, 00:41:13,    138,    0.0,    2.3,   0.00,   0.00, 1027.1,   73.9, -999.0
24-01-2022, 00:41:23,    138,    0.0,    2.4,   0.00,   0.00, 1027.1,   73.8, -999.0
24-01-2022, 00:41:33,    138,    0.0,    2.4,   0.00,   0.00, 1027.1,   73.9, -999.0
24-01-2022, 00:41:43,    139,    0.0,    2.4,   0.00,   0.00, 1027.1,   73.8, -999.0
24-01-2022, 00:41:53,    139,    0.0,    2.3,   0.00,   0.00, 1027.1,   74.0, -999.0
24-01-2022, 00:42:03,    139,    0.0,    2.4,   0.00,   0.00, 1027.1,   74.0, -999.0
24-01-2022, 00:42:13,    139,    0.0,    2.3,   0.00,   0.00, 1027.1,   74.0, -999.0
24-01-2022, 00:42:23,    139,    0.0,    2.4,   0.00,   0.00, 1027.1,   74.0, -999.0
24-01-2022, 00:42:33,    139,    0.0,    2.4,   0.00,   0.00, 1027.1,   74.1, -999.0
24-01-2022, 00:42:43,    139,    0.0,    2.4,   0.00,   0.00, 1027.1,   74.1, -999.0
24-01-2022, 00:42:53,    139,    0.0,    2.4,   0.00,   0.00, 1027.1,   74.0, -999.0
24-01-2022, 00:43:03,    139,    0.0,    2.4,   0.00,   0.00, 1027.0,   74.1, -999.0
24-01-2022, 00:43:13,    139,    0.0,    2.5,   0.00,   0.00, 1027.1,   74.1, -999.0
24-01-2022, 00:43:23,    139,    0.0,    2.5,   0.00,   0.00, 1027.0,   74.1, -999.0
24-01-2022, 00:43:32,    138,    0.0,    2.4,   0.00,   0.00, 1027.0,   74.2, -999.0
24-01-2022, 00:43:42,    139,    0.0,    2.5,   0.00,   0.00, 1027.1,   74.1, -999.0
24-01-2022, 00:43:53,    139,    0.0,    2.4,   0.00,   0.00, 1027.1,   74.0, -999.0
24-01-2022, 00:44:02,    139,    0.0,    2.4,   0.00,   0.00, 1027.0,   74.0, -999.0
24-01-2022, 00:44:12,    139,    0.0,    2.4,   0.00,   0.00, 1027.0,   74.0, -999.0
24-01-2022, 00:44:22,    139,    0.0,    2.4,   0.00,   0.00, 1027.0,   73.8, -999.0
24-01-2022, 00:44:32,    139,    0.0,    2.4,   0.00,   0.00, 1027.0,   73.9, -999.0
24-01-2022, 00:44:42,    139,    0.0,    2.4,   0.00,   0.00, 1027.0,   74.0, -999.0
24-01-2022, 00:44:52,    139,    0.0,    2.4,   0.00,   0.00, 1027.0,   73.9, -999.0
24-01-2022, 00:45:02,    139,    0.0,    2.4,   0.00,   0.00, 1027.1,   73.9, -999.0
24-01-2022, 00:45:12,    139,    0.0,    2.4,   0.00,   0.00, 1027.0,   73.9, -999.0
24-01-2022, 00:45:22,    138,    0.0,    2.4,   0.00,   0.00, 1027.0,   73.9, -999.0
24-01-2022, 00:45:32,    139,    0.0,    2.3,   0.00,   0.00, 1027.0,   73.8, -999.0
24-01-2022, 00:45:42,    139,    0.0,    2.3,   0.00,   0.00, 1027.0,   73.8, -999.0
24-01-2022, 00:45:52,    138,    0.0,    2.3,   0.00,   0.00, 1027.0,   73.9, -999.0
24-01-2022, 00:46:02,    139,    0.0,    2.3,   0.00,   0.00, 1027.0,   74.0, -999.0
24-01-2022, 00:46:12,    139,    0.0,    2.3,   0.00,   0.00, 1027.0,   73.9, -999.0
24-01-2022, 00:46:22,    138,    0.0,    2.3,   0.00,   0.00, 1027.0,   73.9, -999.0
24-01-2022, 00:46:32,    139,    0.0,    2.3,   0.00,   0.00, 1027.0,   73.9, -999.0
24-01-2022, 00:46:42,    138,    0.0,    2.3,   0.00,   0.00, 1027.0,   73.9, -999.0